TimeMST,TemperatureF,Dew PointF,Humidity,Sea Level PressureIn,VisibilityMPH,Wind Direction,Wind SpeedMPH,Gust SpeedMPH,PrecipitationIn,Events,Conditions,WindDirDegrees,DateUTC
12:53 AM,24.1,17.1,75,30.13,10.0,West,5.8,-,N/A,,Overcast,280,2013-02-24 07:53:00
1:53 AM,23.0,16.0,74,30.17,10.0,WSW,8.1,-,N/A,,Overcast,240,2013-02-24 08:53:00
2:53 AM,19.0,12.9,77,30.19,10.0,WSW,9.2,-,N/A,,Partly Cloudy,250,2013-02-24 09:53:00
3:53 AM,17.1,12.0,81,30.20,-9999.0,WSW,9.2,-,N/A,,Clear,240,2013-02-24 10:53:00
4:53 AM,16.0,10.9,81,30.22,-9999.0,WSW,8.1,-,N/A,,Clear,250,2013-02-24 11:53:00
5:53 AM,12.0,7.0,80,30.27,10.0,WNW,6.9,-,N/A,,Clear,300,2013-02-24 12:53:00
6:53 AM,10.9,6.1,81,30.30,10.0,WSW,6.9,-,N/A,,Overcast,250,2013-02-24 13:53:00
7:53 AM,12.0,7.0,80,30.30,10.0,West,8.1,-,N/A,,Clear,260,2013-02-24 14:53:00
8:53 AM,15.1,8.1,74,30.29,10.0,NW,8.1,-,N/A,,Clear,310,2013-02-24 15:53:00
9:53 AM,21.0,12.0,68,30.27,10.0,West,4.6,-,N/A,,Clear,280,2013-02-24 16:53:00
10:53 AM,28.0,12.9,53,30.24,10.0,West,18.4,-,N/A,,Clear,270,2013-02-24 17:53:00
11:53 AM,30.0,12.9,49,30.23,10.0,West,21.9,26.5,N/A,,Clear,280,2013-02-24 18:53:00
12:53 PM,30.9,12.0,46,30.19,10.0,West,19.6,27.6,N/A,,Clear,270,2013-02-24 19:53:00
1:53 PM,32.0,10.9,42,30.16,10.0,West,17.3,-,N/A,,Clear,280,2013-02-24 20:53:00
2:53 PM,32.0,12.9,45,30.16,10.0,West,18.4,21.9,N/A,,Clear,260,2013-02-24 21:53:00
3:53 PM,32.0,12.0,44,30.16,10.0,West,24.2,32.2,N/A,,Clear,280,2013-02-24 22:53:00
4:53 PM,32.0,10.0,40,30.16,10.0,West,20.7,-,N/A,,Clear,260,2013-02-24 23:53:00
5:53 PM,30.0,10.0,43,30.18,10.0,West,15.0,-,N/A,,Clear,270,2013-02-25 00:53:00
6:53 PM,28.0,10.9,49,30.18,10.0,WSW,13.8,-,N/A,,Clear,250,2013-02-25 01:53:00
7:53 PM,30.0,10.9,45,30.16,10.0,SW,27.6,35.7,N/A,,Clear,230,2013-02-25 02:53:00
8:53 PM,30.0,12.0,47,30.14,10.0,SW,31.1,39.1,N/A,,Clear,230,2013-02-25 03:53:00
9:53 PM,28.9,10.9,47,30.14,10.0,WSW,23.0,34.5,N/A,,Clear,250,2013-02-25 04:53:00
10:53 PM,28.9,10.0,45,30.11,10.0,WSW,24.2,40.3,N/A,,Clear,250,2013-02-25 05:53:00
11:53 PM,28.0,10.0,47,30.10,10.0,West,28.8,38.0,N/A,,Clear,260,2013-02-25 06:53:00